Wetterdaten: Mittwoch, 01.06.2011
Datum Zeit Temp. A. Feuchte A. Luftdruck Regen Wind Richtung Richtung Sonnenschein UV Solar Windben
01.06.2011 00:00 11,2 C 90 % 1021,4 hPa 0,0 mm 0,0 km/h (0 Bft) N-NO 22 0 min 0 UV-I 0 W/m 6,4 km/h (2 Bft)
01.06.2011 00:10 11,2 C 90 % 1021,4 hPa 0,0 mm 0,0 km/h (0 Bft) N-NO 22 0 min 0 UV-I 0 W/m 3,2 km/h (1 Bft)
01.06.2011 00:20 11,2 C 90 % 1021,6 hPa 0,0 mm 0,0 km/h (0 Bft) N 360 0 min 0 UV-I 0 W/m 6,4 km/h (2 Bft)
01.06.2011 00:30 11,2 C 91 % 1021,6 hPa 0,0 mm 0,0 km/h (0 Bft) N-NW 337 0 min 0 UV-I 0 W/m 4,8 km/h (1 Bft)
01.06.2011 00:40 11,3 C 90 % 1021,8 hPa 0,0 mm 1,6 km/h (1 Bft) NW 315 0 min 0 UV-I 0 W/m 9,7 km/h (2 Bft)
01.06.2011 00:50 11,1 C 90 % 1022,0 hPa 0,0 mm 1,6 km/h (1 Bft) NW 315 0 min 0 UV-I 0 W/m 9,7 km/h (2 Bft)
01.06.2011 01:00 11,0 C 90 % 1022,1 hPa 0,0 mm 1,6 km/h (1 Bft) W-NW 292 0 min 0 UV-I 0 W/m 9,7 km/h (2 Bft)
01.06.2011 01:10 11,0 C 90 % 1022,1 hPa 0,0 mm 0,0 km/h (0 Bft) N 360 0 min 0 UV-I 0 W/m 6,4 km/h (2 Bft)
01.06.2011 01:20 10,9 C 89 % 1022,1 hPa 0,0 mm 0,0 km/h (0 Bft) W-NW 292 0 min 0 UV-I 0 W/m 8,0 km/h (2 Bft)
01.06.2011 01:30 10,9 C 89 % 1022,2 hPa 0,0 mm 1,6 km/h (1 Bft) N-NO 22 0 min 0 UV-I 0 W/m 8,0 km/h (2 Bft)
01.06.2011 01:40 10,8 C 89 % 1022,3 hPa 0,0 mm 1,6 km/h (1 Bft) SW 225 0 min 0 UV-I 0 W/m 9,7 km/h (2 Bft)
01.06.2011 01:50 10,7 C 89 % 1022,7 hPa 0,0 mm 1,6 km/h (1 Bft) N 360 0 min 0 UV-I 0 W/m 8,0 km/h (2 Bft)
01.06.2011 02:00 10,7 C 89 % 1023,0 hPa 0,0 mm 1,6 km/h (1 Bft) NW 315 0 min 0 UV-I 0 W/m 6,4 km/h (2 Bft)
01.06.2011 02:10 10,8 C 89 % 1023,1 hPa 0,0 mm 0,0 km/h (0 Bft) NW 315 0 min 0 UV-I 0 W/m 4,8 km/h (1 Bft)
01.06.2011 02:20 10,8 C 89 % 1023,1 hPa 0,0 mm 1,6 km/h (1 Bft) W-NW 292 0 min 0 UV-I 0 W/m 9,7 km/h (2 Bft)
01.06.2011 02:30 10,7 C 89 % 1023,0 hPa 0,0 mm 1,6 km/h (1 Bft) NW 315 0 min 0 UV-I 0 W/m 8,0 km/h (2 Bft)
01.06.2011 02:40 10,7 C 88 % 1022,9 hPa 0,0 mm 3,2 km/h (1 Bft) N 360 0 min 0 UV-I 0 W/m 11,3 km/h (2 Bft)
01.06.2011 02:50 10,6 C 88 % 1023,4 hPa 0,0 mm 1,6 km/h (1 Bft) N-NW 337 0 min 0 UV-I 0 W/m 6,4 km/h (2 Bft)
01.06.2011 03:00 10,6 C 88 % 1023,5 hPa 0,0 mm 0,0 km/h (0 Bft) N-NW 337 0 min 0 UV-I 0 W/m 1,6 km/h (1 Bft)
01.06.2011 03:10 10,6 C 88 % 1023,6 hPa 0,0 mm 0,0 km/h (0 Bft) N-NW 337 0 min 0 UV-I 0 W/m 4,8 km/h (1 Bft)
01.06.2011 03:20 10,6 C 88 % 1023,6 hPa 0,0 mm 1,6 km/h (1 Bft) N-NW 337 0 min 0 UV-I 0 W/m 6,4 km/h (2 Bft)
01.06.2011 03:30 10,5 C 88 % 1023,7 hPa 0,0 mm 1,6 km/h (1 Bft) N-NO 22 0 min 0 UV-I 0 W/m 8,0 km/h (2 Bft)
01.06.2011 03:40 10,5 C 88 % 1023,7 hPa 0,0 mm 0,0 km/h (0 Bft) N-NO 22 0 min 0 UV-I 0 W/m 6,4 km/h (2 Bft)
01.06.2011 03:50 10,5 C 88 % 1023,8 hPa 0,0 mm 1,6 km/h (1 Bft) W-NW 292 0 min 0 UV-I 0 W/m 6,4 km/h (2 Bft)
01.06.2011 04:00 10,5 C 88 % 1023,9 hPa 0,0 mm 1,6 km/h (1 Bft) W-NW 292 0 min 0 UV-I 0 W/m 8,0 km/h (2 Bft)
01.06.2011 04:10 10,4 C 88 % 1024,1 hPa 0,0 mm 1,6 km/h (1 Bft) NW 315 0 min 0 UV-I 0 W/m 11,3 km/h (2 Bft)
01.06.2011 04:20 10,3 C 88 % 1024,2 hPa 0,0 mm 1,6 km/h (1 Bft) N-NW 337 0 min 0 UV-I 0 W/m 11,3 km/h (2 Bft)
01.06.2011 04:30 10,3 C 88 % 1024,1 hPa 0,0 mm 1,6 km/h (1 Bft) NW 315 0 min 0 UV-I 0 W/m 9,7 km/h (2 Bft)
01.06.2011 04:40 10,2 C 88 % 1024,1 hPa 0,0 mm 1,6 km/h (1 Bft) W-NW 292 0 min 0 UV-I 0 W/m 6,4 km/h (2 Bft)
01.06.2011 04:50 10,1 C 88 % 1024,2 hPa 0,0 mm 1,6 km/h (1 Bft) N-NO 22 0 min 0 UV-I 0 W/m 6,4 km/h (2 Bft)
01.06.2011 05:00 9,9 C 89 % 1024,2 hPa 0,0 mm 1,6 km/h (1 Bft) NW 315 0 min 0 UV-I 0 W/m 9,7 km/h (2 Bft)
01.06.2011 05:10 9,8 C 89 % 1024,3 hPa 0,0 mm 1,6 km/h (1 Bft) NW 315 0 min 0 UV-I 0 W/m 8,0 km/h (2 Bft)
01.06.2011 05:20 9,7 C 89 % 1024,6 hPa 0,0 mm 0,0 km/h (0 Bft) N-NW 337 0 min 0 UV-I 5 W/m 6,4 km/h (2 Bft)
01.06.2011 05:30 9,7 C 89 % 1024,7 hPa 0,0 mm 1,6 km/h (1 Bft) N-NO 22 0 min 0 UV-I 11 W/m 8,0 km/h (2 Bft)
01.06.2011 05:40 9,7 C 90 % 1024,8 hPa 0,0 mm 0,0 km/h (0 Bft) NW 315 0 min 0 UV-I 16 W/m 6,4 km/h (2 Bft)
01.06.2011 05:50 9,7 C 90 % 1024,9 hPa 0,0 mm 0,0 km/h (0 Bft) W-NW 292 0 min 0 UV-I 23 W/m 6,4 km/h (2 Bft)
01.06.2011 06:00 9,7 C 90 % 1025,1 hPa 0,0 mm 1,6 km/h (1 Bft) N-NO 22 0 min 0 UV-I 35 W/m 8,0 km/h (2 Bft)
01.06.2011 06:10 9,8 C 90 % 1025,2 hPa 0,0 mm 1,6 km/h (1 Bft) N 360 0 min 0 UV-I 42 W/m 8,0 km/h (2 Bft)
01.06.2011 06:20 9,8 C 89 % 1025,3 hPa 0,0 mm 1,6 km/h (1 Bft) NW 315 0 min 0 UV-I 46 W/m 9,7 km/h (2 Bft)
01.06.2011 06:30 9,9 C 89 % 1025,4 hPa 0,0 mm 1,6 km/h (1 Bft) N-NO 22 0 min 0 UV-I 54 W/m 8,0 km/h (2 Bft)
01.06.2011 06:40 9,9 C 89 % 1025,4 hPa 0,0 mm 1,6 km/h (1 Bft) N-NW 337 0 min 0 UV-I 62 W/m 6,4 km/h (2 Bft)
01.06.2011 06:50 10,0 C 89 % 1025,5 hPa 0,0 mm 1,6 km/h (1 Bft) N 360 0 min 0 UV-I 63 W/m 8,0 km/h (2 Bft)
01.06.2011 07:00 10,1 C 89 % 1025,6 hPa 0,0 mm 1,6 km/h (1 Bft) N 360 0 min 0 UV-I 69 W/m 11,3 km/h (2 Bft)
01.06.2011 07:10 10,2 C 89 % 1025,7 hPa 0,0 mm 1,6 km/h (1 Bft) N-NO 22 0 min 0 UV-I 86 W/m 8,0 km/h (2 Bft)
01.06.2011 07:20 10,3 C 88 % 1025,7 hPa 0,0 mm 1,6 km/h (1 Bft) N 360 0 min 1 UV-I 105 W/m 8,0 km/h (2 Bft)
01.06.2011 07:30 10,3 C 88 % 1025,9 hPa 0,0 mm 3,2 km/h (1 Bft) N 360 0 min 1 UV-I 123 W/m 9,7 km/h (2 Bft)
01.06.2011 07:40 10,4 C 87 % 1025,8 hPa 0,0 mm 3,2 km/h (1 Bft) N-NO 22 0 min 1 UV-I 135 W/m 11,3 km/h (2 Bft)
01.06.2011 07:50 10,6 C 86 % 1025,9 hPa 0,0 mm 3,2 km/h (1 Bft) N 360 0 min 1 UV-I 142 W/m 11,3 km/h (2 Bft)
01.06.2011 08:00 10,8 C 86 % 1026,0 hPa 0,0 mm 3,0 km/h (1 Bft) N-NW 338 0 min 1 UV-I 138 W/m 11,3 km/h (2 Bft)
01.06.2011 08:10 10,8 C 85 % 1026,2 hPa 0,0 mm 1,6 km/h (1 Bft) N-NO 22 0 min 1 UV-I 165 W/m 11,3 km/h (2 Bft)
01.06.2011 08:20 10,9 C 84 % 1026,4 hPa 0,0 mm 1,6 km/h (1 Bft) W-NW 292 0 min 1 UV-I 160 W/m 11,3 km/h (2 Bft)
01.06.2011 08:30 10,9 C 85 % 1026,4 hPa 0,0 mm 1,6 km/h (1 Bft) N 360 0 min 1 UV-I 144 W/m 6,4 km/h (2 Bft)
01.06.2011 08:40 11,1 C 84 % 1026,5 hPa 0,0 mm 3,2 km/h (1 Bft) N-NO 22 0 min 1 UV-I 141 W/m 11,3 km/h (2 Bft)
01.06.2011 08:50 11,1 C 83 % 1026,7 hPa 0,0 mm 3,2 km/h (1 Bft) N-NO 22 0 min 1 UV-I 128 W/m 14,5 km/h (3 Bft)
01.06.2011 09:00 11,1 C 83 % 1026,7 hPa 0,0 mm 3,2 km/h (1 Bft) N 360 0 min 1 UV-I 156 W/m 9,7 km/h (2 Bft)
01.06.2011 09:10 11,3 C 83 % 1026,7 hPa 0,0 mm 1,6 km/h (1 Bft) N 360 0 min 1 UV-I 195 W/m 8,0 km/h (2 Bft)
01.06.2011 09:20 11,4 C 82 % 1026,7 hPa 0,0 mm 1,6 km/h (1 Bft) N-NO 22 0 min 2 UV-I 232 W/m 11,3 km/h (2 Bft)
01.06.2011 09:30 11,6 C 82 % 1026,9 hPa 0,0 mm 1,6 km/h (1 Bft) N-NW 337 0 min 2 UV-I 272 W/m 6,4 km/h (2 Bft)
01.06.2011 09:40 11,8 C 80 % 1026,8 hPa 0,0 mm 3,2 km/h (1 Bft) NW 315 0 min 2 UV-I 281 W/m 11,3 km/h (2 Bft)
01.06.2011 09:50 11,8 C 80 % 1026,9 hPa 0,0 mm 3,2 km/h (1 Bft) N 360 0 min 2 UV-I 308 W/m 12,9 km/h (3 Bft)
01.06.2011 10:00 12,2 C 79 % 1027,1 hPa 0,0 mm 3,2 km/h (1 Bft) W-NW 292 10 min 3 UV-I 545 W/m 17,7 km/h (3 Bft)
01.06.2011 10:10 12,3 C 78 % 1027,0 hPa 0,0 mm 3,2 km/h (1 Bft) N-NO 22 0 min 3 UV-I 304 W/m 14,5 km/h (3 Bft)
01.06.2011 10:20 12,3 C 78 % 1027,1 hPa 0,0 mm 4,8 km/h (1 Bft) N-NO 22 10 min 4 UV-I 547 W/m 14,5 km/h (3 Bft)
01.06.2011 10:30 12,8 C 75 % 1027,2 hPa 0,0 mm 6,4 km/h (2 Bft) N-NO 22 0 min 3 UV-I 350 W/m 14,5 km/h (3 Bft)
01.06.2011 10:40 13,2 C 74 % 1027,0 hPa 0,0 mm 3,2 km/h (1 Bft) N-NO 22 10 min 5 UV-I 745 W/m 14,5 km/h (3 Bft)
01.06.2011 10:50 13,6 C 72 % 1027,1 hPa 0,0 mm 3,2 km/h (1 Bft) N 360 10 min 5 UV-I 849 W/m 14,5 km/h (3 Bft)
01.06.2011 11:00 13,6 C 73 % 1027,2 hPa 0,0 mm 3,2 km/h (1 Bft) N-NO 22 10 min 5 UV-I 552 W/m 17,7 km/h (3 Bft)
01.06.2011 11:10 13,5 C 71 % 1027,1 hPa 0,0 mm 1,6 km/h (1 Bft) N 360 10 min 4 UV-I 513 W/m 14,5 km/h (3 Bft)
01.06.2011 11:20 13,7 C 71 % 1027,3 hPa 0,0 mm 3,2 km/h (1 Bft) N-NO 22 0 min 4 UV-I 417 W/m 14,5 km/h (3 Bft)
01.06.2011 11:30 14,1 C 69 % 1027,4 hPa 0,0 mm 4,8 km/h (1 Bft) N 360 10 min 4 UV-I 473 W/m 14,5 km/h (3 Bft)
01.06.2011 11:40 14,2 C 67 % 1027,3 hPa 0,0 mm 3,2 km/h (1 Bft) N 360 10 min 4 UV-I 448 W/m 11,3 km/h (2 Bft)
01.06.2011 11:50 14,4 C 67 % 1027,4 hPa 0,0 mm 4,8 km/h (1 Bft) N-NO 22 10 min 4 UV-I 468 W/m 16,1 km/h (3 Bft)
01.06.2011 12:00 14,3 C 67 % 1027,3 hPa 0,0 mm 3,2 km/h (1 Bft) N 360 10 min 5 UV-I 589 W/m 11,3 km/h (2 Bft)
01.06.2011 12:10 14,7 C 64 % 1027,4 hPa 0,0 mm 4,8 km/h (1 Bft) N 360 10 min 5 UV-I 536 W/m 14,5 km/h (3 Bft)
01.06.2011 12:20 15,1 C 64 % 1027,5 hPa 0,0 mm 1,6 km/h (1 Bft) N-NO 22 10 min 8 UV-I 1146 W/m 14,5 km/h (3 Bft)
01.06.2011 12:30 16,1 C 60 % 1027,4 hPa 0,0 mm 3,2 km/h (1 Bft) O-NO 67 10 min 8 UV-I 1055 W/m 9,7 km/h (2 Bft)
01.06.2011 12:40 17,1 C 58 % 1027,3 hPa 0,0 mm 3,2 km/h (1 Bft) N-NO 22 10 min 8 UV-I 1086 W/m 16,1 km/h (3 Bft)
01.06.2011 12:50 17,4 C 58 % 1027,4 hPa 0,0 mm 3,2 km/h (1 Bft) O-NO 67 10 min 8 UV-I 1060 W/m 11,3 km/h (2 Bft)
01.06.2011 13:00 16,8 C 61 % 1027,4 hPa 0,0 mm 4,8 km/h (1 Bft) NW 315 10 min 8 UV-I 1076 W/m 22,5 km/h (4 Bft)
01.06.2011 13:10 16,9 C 55 % 1027,5 hPa 0,0 mm 4,8 km/h (1 Bft) N-NO 22 10 min 8 UV-I 1100 W/m 16,1 km/h (3 Bft)
01.06.2011 13:20 17,2 C 56 % 1027,5 hPa 0,0 mm 4,8 km/h (1 Bft) N 360 10 min 8 UV-I 1076 W/m 16,1 km/h (3 Bft)
01.06.2011 13:30 17,7 C 56 % 1027,4 hPa 0,0 mm 3,2 km/h (1 Bft) N-NO 22 10 min 8 UV-I 1109 W/m 11,3 km/h (2 Bft)
01.06.2011 13:40 17,2 C 55 % 1027,5 hPa 0,0 mm 3,2 km/h (1 Bft) N 360 10 min 7 UV-I 991 W/m 16,1 km/h (3 Bft)
01.06.2011 13:50 17,2 C 53 % 1027,6 hPa 0,0 mm 4,8 km/h (1 Bft) N 360 10 min 8 UV-I 1023 W/m 20,9 km/h (4 Bft)
01.06.2011 14:00 17,8 C 54 % 1027,4 hPa 0,0 mm 3,2 km/h (1 Bft) N-NO 22 10 min 8 UV-I 1093 W/m 12,9 km/h (3 Bft)
01.06.2011 14:10 17,9 C 53 % 1027,5 hPa 0,0 mm 4,8 km/h (1 Bft) N-NO 22 10 min 7 UV-I 983 W/m 20,9 km/h (4 Bft)
01.06.2011 14:20 18,1 C 53 % 1027,2 hPa 0,0 mm 4,8 km/h (1 Bft) N-NO 22 10 min 7 UV-I 995 W/m 22,5 km/h (4 Bft)
01.06.2011 14:30 18,8 C 49 % 1027,3 hPa 0,0 mm 6,4 km/h (2 Bft) N-NO 22 10 min 7 UV-I 979 W/m 20,9 km/h (4 Bft)
01.06.2011 14:40 18,6 C 48 % 1027,3 hPa 0,0 mm 4,8 km/h (1 Bft) N-NO 22 10 min 7 UV-I 967 W/m 19,3 km/h (3 Bft)
01.06.2011 14:50 18,7 C 48 % 1027,4 hPa 0,0 mm 6,4 km/h (2 Bft) N-NO 22 10 min 7 UV-I 1023 W/m 19,3 km/h (3 Bft)
01.06.2011 15:00 19,3 C 48 % 1027,3 hPa 0,0 mm 4,8 km/h (1 Bft) N-NO 22 10 min 6 UV-I 946 W/m 16,1 km/h (3 Bft)
01.06.2011 15:10 19,6 C 50 % 1027,3 hPa 0,0 mm 4,8 km/h (1 Bft) N-NO 22 10 min 6 UV-I 965 W/m 14,5 km/h (3 Bft)
01.06.2011 15:20 19,3 C 46 % 1027,3 hPa 0,0 mm 4,8 km/h (1 Bft) N 360 10 min 6 UV-I 1018 W/m 16,1 km/h (3 Bft)
01.06.2011 15:30 18,8 C 51 % 1027,3 hPa 0,0 mm 3,2 km/h (1 Bft) N-NO 22 10 min 6 UV-I 912 W/m 14,5 km/h (3 Bft)
01.06.2011 15:40 19,6 C 45 % 1027,1 hPa 0,0 mm 4,8 km/h (1 Bft) N-NO 22 10 min 6 UV-I 911 W/m 14,5 km/h (3 Bft)
01.06.2011 15:50 19,6 C 48 % 1027,1 hPa 0,0 mm 4,8 km/h (1 Bft) N-NO 22 10 min 5 UV-I 865 W/m 11,3 km/h (2 Bft)
01.06.2011 16:00 19,5 C 48 % 1027,0 hPa 0,0 mm 8,0 km/h (2 Bft) N-NO 22 10 min 5 UV-I 888 W/m 25,7 km/h (4 Bft)
01.06.2011 16:10 19,6 C 52 % 1027,1 hPa 0,0 mm 4,8 km/h (1 Bft) N 360 10 min 5 UV-I 830 W/m 19,3 km/h (3 Bft)
01.06.2011 16:20 19,9 C 48 % 1027,2 hPa 0,0 mm 4,8 km/h (1 Bft) N-NO 22 10 min 5 UV-I 868 W/m 14,5 km/h (3 Bft)
01.06.2011 16:30 19,2 C 50 % 1027,2 hPa 0,0 mm 6,4 km/h (2 Bft) N-NO 22 10 min 4 UV-I 770 W/m 17,7 km/h (3 Bft)
01.06.2011 16:40 19,6 C 47 % 1027,2 hPa 0,0 mm 3,2 km/h (1 Bft) N-NO 22 10 min 4 UV-I 798 W/m 14,5 km/h (3 Bft)
01.06.2011 16:50 19,8 C 48 % 1027,3 hPa 0,0 mm 4,8 km/h (1 Bft) N-NO 22 10 min 4 UV-I 853 W/m 19,3 km/h (3 Bft)
01.06.2011 17:00 19,9 C 47 % 1027,2 hPa 0,0 mm 4,8 km/h (1 Bft) N-NO 22 10 min 3 UV-I 689 W/m 14,5 km/h (3 Bft)
01.06.2011 17:10 19,9 C 47 % 1027,3 hPa 0,0 mm 4,8 km/h (1 Bft) N-NO 22 10 min 3 UV-I 661 W/m 17,7 km/h (3 Bft)
01.06.2011 17:20 19,9 C 49 % 1027,3 hPa 0,0 mm 4,8 km/h (1 Bft) N-NO 22 10 min 3 UV-I 615 W/m 16,1 km/h (3 Bft)
01.06.2011 17:30 19,4 C 51 % 1027,1 hPa 0,0 mm 3,2 km/h (1 Bft) N 360 10 min 3 UV-I 577 W/m 11,3 km/h (2 Bft)
01.06.2011 17:40 19,2 C 51 % 1027,1 hPa 0,0 mm 4,8 km/h (1 Bft) N 360 10 min 2 UV-I 504 W/m 16,1 km/h (3 Bft)
01.06.2011 17:50 19,1 C 52 % 1027,1 hPa 0,0 mm 4,8 km/h (1 Bft) N 360 10 min 2 UV-I 517 W/m 16,1 km/h (3 Bft)
01.06.2011 18:00 19,2 C 51 % 1027,1 hPa 0,0 mm 3,2 km/h (1 Bft) N-NO 22 10 min 2 UV-I 506 W/m 14,5 km/h (3 Bft)
01.06.2011 18:10 19,3 C 49 % 1027,1 hPa 0,0 mm 4,8 km/h (1 Bft) NO 45 10 min 2 UV-I 469 W/m 16,1 km/h (3 Bft)
01.06.2011 18:20 19,2 C 50 % 1027,0 hPa 0,0 mm 4,8 km/h (1 Bft) N 360 10 min 2 UV-I 455 W/m 16,1 km/h (3 Bft)
01.06.2011 18:30 18,9 C 49 % 1027,1 hPa 0,0 mm 4,8 km/h (1 Bft) N-NO 22 10 min 2 UV-I 429 W/m 16,1 km/h (3 Bft)
01.06.2011 18:40 19,1 C 50 % 1027,2 hPa 0,0 mm 4,8 km/h (1 Bft) N-NO 22 10 min 1 UV-I 380 W/m 16,1 km/h (3 Bft)
01.06.2011 18:50 19,0 C 49 % 1027,2 hPa 0,0 mm 4,8 km/h (1 Bft) N 360 10 min 1 UV-I 378 W/m 14,5 km/h (3 Bft)
01.06.2011 19:00 19,2 C 48 % 1027,2 hPa 0,0 mm 4,8 km/h (1 Bft) N-NO 22 10 min 1 UV-I 359 W/m 14,5 km/h (3 Bft)
01.06.2011 19:10 19,1 C 46 % 1027,2 hPa 0,0 mm 6,4 km/h (2 Bft) N 360 10 min 1 UV-I 320 W/m 17,7 km/h (3 Bft)
01.06.2011 19:20 18,9 C 45 % 1027,3 hPa 0,0 mm 4,8 km/h (1 Bft) N-NO 22 10 min 1 UV-I 304 W/m 16,1 km/h (3 Bft)
01.06.2011 19:30 18,9 C 43 % 1027,4 hPa 0,0 mm 4,8 km/h (1 Bft) N 360 10 min 1 UV-I 262 W/m 14,5 km/h (3 Bft)
01.06.2011 19:40 18,9 C 44 % 1027,6 hPa 0,0 mm 4,8 km/h (1 Bft) N-NO 22 10 min 1 UV-I 236 W/m 16,1 km/h (3 Bft)
01.06.2011 19:50 18,7 C 42 % 1027,7 hPa 0,0 mm 3,2 km/h (1 Bft) N 360 10 min 1 UV-I 216 W/m 14,5 km/h (3 Bft)
01.06.2011 20:00 18,3 C 43 % 1027,8 hPa 0,0 mm 3,2 km/h (1 Bft) N-NO 22 10 min 1 UV-I 190 W/m 14,5 km/h (3 Bft)
01.06.2011 20:10 18,1 C 42 % 1027,9 hPa 0,0 mm 4,8 km/h (1 Bft) N-NO 22 10 min 1 UV-I 167 W/m 20,9 km/h (4 Bft)
01.06.2011 20:20 17,8 C 43 % 1027,9 hPa 0,0 mm 4,8 km/h (1 Bft) N-NO 22 0 min 0 UV-I 69 W/m 16,1 km/h (3 Bft)
01.06.2011 20:30 17,4 C 46 % 1028,1 hPa 0,0 mm 3,2 km/h (1 Bft) N-NO 22 0 min 0 UV-I 26 W/m 11,3 km/h (2 Bft)
01.06.2011 20:40 17,1 C 48 % 1028,3 hPa 0,0 mm 3,2 km/h (1 Bft) N-NO 22 0 min 0 UV-I 25 W/m 16,1 km/h (3 Bft)
01.06.2011 20:50 16,8 C 50 % 1028,3 hPa 0,0 mm 1,6 km/h (1 Bft) N-NO 22 0 min 0 UV-I 21 W/m 9,7 km/h (2 Bft)
01.06.2011 21:00 16,4 C 52 % 1028,3 hPa 0,0 mm 0,0 km/h (0 Bft) NO 45 0 min 0 UV-I 19 W/m 3,2 km/h (1 Bft)
01.06.2011 21:10 16,0 C 53 % 1028,4 hPa 0,0 mm 0,0 km/h (0 Bft) NO 45 0 min 0 UV-I 16 W/m 1,6 km/h (1 Bft)
01.06.2011 21:20 15,6 C 54 % 1028,5 hPa 0,0 mm 0,0 km/h (0 Bft) NO 45 10 min 0 UV-I 12 W/m 3,2 km/h (1 Bft)
01.06.2011 21:30 15,3 C 58 % 1028,7 hPa 0,0 mm 0,0 km/h (0 Bft) N 0 0 min 0 UV-I 7 W/m 0,0 km/h (0 Bft)
01.06.2011 21:40 14,9 C 62 % 1028,8 hPa 0,0 mm 0,0 km/h (0 Bft) N 0 0 min 0 UV-I 0 W/m 0,0 km/h (0 Bft)
01.06.2011 21:50 14,5 C 64 % 1028,9 hPa 0,0 mm 0,0 km/h (0 Bft) NO 45 0 min 0 UV-I 0 W/m 1,6 km/h (1 Bft)
01.06.2011 22:00 14,4 C 63 % 1029,2 hPa 0,0 mm 0,0 km/h (0 Bft) NO 45 0 min 0 UV-I 0 W/m 3,2 km/h (1 Bft)
01.06.2011 22:10 14,4 C 63 % 1029,1 hPa 0,0 mm 0,0 km/h (0 Bft) N-NO 22 0 min 0 UV-I 0 W/m 4,8 km/h (1 Bft)
01.06.2011 22:20 14,3 C 63 % 1029,2 hPa 0,0 mm 1,6 km/h (1 Bft) N-NO 22 0 min 0 UV-I 0 W/m 4,8 km/h (1 Bft)
01.06.2011 22:30 14,1 C 62 % 1029,3 hPa 0,0 mm 1,6 km/h (1 Bft) N-NO 22 0 min 0 UV-I 0 W/m 6,4 km/h (2 Bft)
01.06.2011 22:40 14,0 C 63 % 1029,4 hPa 0,0 mm 1,6 km/h (1 Bft) N 360 0 min 0 UV-I 0 W/m 6,4 km/h (2 Bft)
01.06.2011 22:50 13,8 C 63 % 1029,4 hPa 0,0 mm 0,0 km/h (0 Bft) N-NO 22 0 min 0 UV-I 0 W/m 6,4 km/h (2 Bft)
01.06.2011 23:00 13,7 C 62 % 1029,6 hPa 0,0 mm 1,6 km/h (1 Bft) N-NO 22 0 min 0 UV-I 0 W/m 8,0 km/h (2 Bft)
01.06.2011 23:10 13,6 C 63 % 1029,6 hPa 0,0 mm 0,0 km/h (0 Bft) N-NO 22 0 min 0 UV-I 0 W/m 6,4 km/h (2 Bft)
01.06.2011 23:20 13,3 C 65 % 1029,7 hPa 0,0 mm 0,0 km/h (0 Bft) N-NO 22 0 min 0 UV-I 0 W/m 3,2 km/h (1 Bft)
01.06.2011 23:30 12,8 C 66 % 1029,7 hPa 0,0 mm 0,0 km/h (0 Bft) N-NO 22 0 min 0 UV-I 0 W/m 4,8 km/h (1 Bft)
01.06.2011 23:40 12,6 C 66 % 1029,7 hPa 0,0 mm 0,0 km/h (0 Bft) N-NO 22 0 min 0 UV-I 0 W/m 1,6 km/h (1 Bft)
01.06.2011 23:50 12,3 C 66 % 1029,7 hPa 0,0 mm 0,0 km/h (0 Bft) N-NO 22 0 min 0 UV-I 0 W/m 1,6 km/h (1 Bft)
_ Min-Zeit 05:30 19:50 00:00 - 00:00 - - - - - 21:30
Minimum _ 9,6 C 42 % 1021,4 hPa - 0,0 km/h (0 Bft) - - - - - 0,0 km/h (0 Bft)
_ Max-Zeit 17:20 00:30 23:20 00:00 16:00 - - 10:00 12:20 12:20 16:00
Maximum _ 20,2 C 91 % 1029,7 hPa 0,0 mm 8,0 km/h
N-NO (2 Bft)
- - 10 min 8 UV-I 1146 W/m 25,7 km/h
N-NO (4 Bft)
Durchschnitt _ 14,2 C 69 % 1026,3 hPa #0,0 mm 2,6 km/h (1 Bft) N-NO - #10:00 h 4 UV-I 474 W/m 11,2 km/h (2 Bft)